Regional Weather Roundup
Issued by NWS

Home | Current Version | Previous Version | Text Only | Print | Product List | Glossary Off
Versions: 1 2 3 4 5 6 7 8 9 10 11 12 13 14 15 16 17 18 19 20 21 22 23 24 25 26 27 28 29 30 31 32 33 34 35 36 37 38 39 40 41 42 43 44 45 46 47 48 49 50

000
ASUS43 KLOT 221710
RWRIL

ILLINOIS REGIONAL WEATHER ROUNDUP
NATIONAL WEATHER SERVICE CHICAGO/ROMEOVILLE IL
1200 PM CDT MON SEP 22 2014

NOTE: "FAIR" INDICATES FEW OR NO CLOUDS BELOW 12,000 FEET WITH NO
SIGNIFICANT WEATHER AND/OR OBSTRUCTIONS TO VISIBILITY.

* THESE STATIONS ARE NOT UNDER NWS QUALITY CONTROL. THEY ALSO MAY NOT
  REPORT WEATHER SUCH AS PRECIPITATION OR FOG.

ILZ001-002-007-009-015-016-024-221800-
NORTHWEST ILLINOIS

CITY           SKY/WX    TMP DP  RH WIND       PRES   REMARKS
MOLINE         SUNNY     64  44  48 VRB3      30.32F
STERLING*      SUNNY     64  41  42 NW3       30.31F
SAVANNA*       SUNNY     62  40  45 CALM      30.32S
$$

ILZ003-004-008-010-011-017-018-221800-
NORTH CENTRAL ILLINOIS

CITY           SKY/WX    TMP DP  RH WIND       PRES   REMARKS
ROCKFORD       SUNNY     62  42  47 S3        30.33S
FREEPORT*      SUNNY     60  44  55 W7        30.33S
ROCHELLE*      SUNNY     60  40  47 CALM      30.31S
DE KALB*       SUNNY     58  42  56 N6        30.31S
PERU*          SUNNY     61  39  44 CALM      30.32S
$$

ILZ005-006-012>014-019>023-221800-
NORTHEAST ILLINOIS

CITY           SKY/WX    TMP DP  RH WIND       PRES   REMARKS
CHICAGO-OHARE  MOSUNNY   55  41  59 NE5       30.29S
CHICAGO-MIDWAY MOSUNNY   63  44  50 CALM      30.29S
AURORA         SUNNY     60  40  47 VRB3      30.30F
LANSING*       MOSUNNY   58  45  61 NE6       30.29S
JOLIET*        SUNNY     59  41  51 CALM      30.30F
WAUKEGAN       SUNNY     60  42  51 CALM      30.28S
DUPAGE AIRPORT SUNNY     62  42  47 VRB3      30.29F
KANKAKEE*      MOSUNNY   61  46  58 NW6       30.30F
WHEELING       SUNNY     63  40  42 VRB5      30.30F
MORRIS*        SUNNY     61  43  51 W3        30.29F
ROMEOVILLE*    SUNNY     60  42  51 N3        30.29F
NORTHERLY ISL    N/A     57  45  64 NE8         N/A
$$

LMZ740>746-221800-
SOUTHERN LAKE MICHIGAN

STATION/POSITION SKY/WX   TEMP    WIND        PRES    VSBY  WAVE
                          AIR SEA DIR/SP/G                  HT/PER
                          (F)     (DEG/KT/KT) (MB)    (MI)  (FT/S)
SOUTHERN BUOY              54 62  270/  8/ 10 1025.6S         3/ 7
WAUKEGAN HARBOR            58     140/  6/  6   N/A
HARRISON CRIB              54     360/  5/  7   N/A
BURNHAM HARBOR             57      30/  6/  8   N/A
CALUMET HARBOR             56      20/  4/ 10 1024.7S
MICHIGAN CITY              56     340/  9/ 12   N/A
MICHIGAN CITY 6N           56 64  350/  8/ 12   N/A           4/ 7
ST. JOSEPH                 56 65  350/ 10/ 16   N/A           4/ 6
$$

ILZ025>027-034>036-040-047-049-050-058-095>099-221800-
WEST-CENTRAL ILLINOIS

CITY           SKY/WX    TMP DP  RH WIND       PRES   REMARKS
QUINCY         SUNNY     66  44  45 NW6       30.31F
GALESBURG*     SUNNY     69  46  44 CALM      30.32F
MACOMB*        SUNNY     64  40  42 CALM      30.34S
JACKSONVILLE*  SUNNY     67  46  46 NE7       30.32S
PITTSFIELD*    SUNNY     67  43  41 CALM      30.32F
$$

ILZ028>032-037-038-041>044-048-051>054-059>061-221800-
CENTRAL ILLINOIS

CITY           SKY/WX    TMP DP  RH WIND       PRES   REMARKS
PONTIAC        SUNNY     63  43  48 CALM      30.30F
DECATUR        SUNNY     64  45  49 CALM      30.30F
PEORIA         SUNNY     64  43  46 VRB3      30.31F
LACON*         SUNNY     60  39  46 NW3       30.31S
LINCOLN*       SUNNY     66  42  41 N3        30.28F
SPRINGFIELD    SUNNY     67  47  48 N5        30.31F
TAYLORVILLE    SUNNY     64  43  45 NW7       30.30F
$$

ILZ033-039-045-046-055>057-062-063-221800-
EAST-CENTRAL ILLINOIS

CITY           SKY/WX    TMP DP  RH WIND       PRES   REMARKS
CHAMPAIGN      SUNNY     63  48  58 NW8       30.30S
DANVILLE*      SUNNY     62  45  55 N10       30.26S
RANTOUL*       SUNNY     63  44  50 N3        30.30S
MATTOON        SUNNY     64  46  52 NW5       30.28F
PARIS*         SUNNY     63  45  50 N3        30.29S
$$

ILZ079-100>102-221800-
SOUTHWEST ILLINOIS

CITY           SKY/WX    TMP DP  RH WIND       PRES   REMARKS
ALTON          SUNNY     64  43  45 N6        30.31S
BELLEVILLE     MOSUNNY   68  50  52 NW10      30.29F
CAHOKIA*       SUNNY     69  49  48 NW6       30.30F
SPARTA*        MOSUNNY   67  49  52 NE6       30.31S
$$

ILZ064>066-069>071-074>076-080>082-084>086-088>090-092>094-221800-
SOUTH-CENTRAL ILLINOIS

CITY           SKY/WX    TMP DP  RH WIND       PRES   REMARKS
CARBONDALE     SUNNY     68  48  48 N8        30.29R
CAIRO*         SUNNY     70  50  49 N10       30.26F
EFFINGHAM*     SUNNY     64  44  47 NW7       30.29F
MARION         MOSUNNY   68  48  49 N7        30.29S
MT. VERNON     SUNNY     64  48  55 N6        30.30S
CENTRALIA*     SUNNY     65  47  51 NE6       30.30S
SALEM*         SUNNY     66  50  56 NE7       30.30S
METROPOLIS*    SUNNY     69  49  47 N5        30.25F
$$

ILZ067-068-072-073-078-083-087-091-221800-
SOUTHEAST ILLINOIS

CITY           SKY/WX    TMP DP  RH WIND       PRES   REMARKS
LAWRENCEVILLE  SUNNY     66  46  48 N7        30.28S
FLORA*         SUNNY     65  44  46 NE6       30.29S
FAIRFIELD*     SUNNY    N/A N/A N/A NE7       30.28F
HARRISBURG*    SUNNY     65  47  52 N9        30.29S
ROBINSON*      SUNNY     66  49  53 N9        30.29F
CARMI*         SUNNY     68  49  50 N8        30.28F
$$

ABBREVIATIONS USED IN REMARKS
   TC - TEMPERATURE IN CELSIUS
  WCI - WIND CHILL INDEX
   HX - HEAT INDEX
  VSB - VISIBILITY
$$



USA.gov is the U.S. government's official web portal to all federal, state and local government web resources and services.